Flag for Russia Weather past 2 weeks in Sochi, Russia

Now
59 °F

Cloudy.


Feels Like: 58 °F
Forecast: 56 / 68 °F
Wind: 8 mph from South

Location: Adler

Current Time: Oct 20, 2014 at 5:15:38 PM

Latest Report: Oct 20, 2014 at 4:30 PM


Visibility: N/A

Pressure: 30.18 "Hg

Humidity: 55%

Dew point: 43 °F

Location of SochiLocation

Historic Weather in Sochi — Graph

°F

Sochi temperature yesterday

Maximum temperature yesterday: 59 °F (at 2:30 AM)
Minimum temperature yesterday: 50 °F (at 8:30 PM)
Average temperature yesterday: 55 °F

Past Weeks' High & Low Weather Summary

 TemperatureHumidityPressure
High72 °F (Oct 8, 12:30 PM)94% (Oct 10, 9:30 PM)30.27 "Hg (Oct 10, 9:30 PM)
Low46 °F (Oct 20, 5:30 AM)47% (Oct 8, 12:30 PM)29.62 "Hg (Oct 18, 5:30 PM)
Average61 °F77%30.05 "Hg
* Reported Oct 5 4:00 PM — Oct 20 4:00 PM, Sochi, Weather by CustomWeather, © 2014

Note: Actual official high and low records may vary slightly from our data, if they occured in-between our weather recording intervals... More about our weather records

Advertising

Sochi weather history for previous 24 hours

 ConditionsComfort  
Time TempWeatherWind HumidityBarometerVisibility
4:00 PM
Oct 20
57 °FMore clouds than sun.10 mph59%30.18 "HgN/A
3:30 PM59 °FBroken clouds.8 mph51%30.18 "HgN/A
3:00 PM59 °FBroken clouds.8 mph51%30.18 "HgN/A
2:30 PM57 °FPartly sunny.10 mph51%30.21 "HgN/A
2:00 PM59 °FPartly sunny.8 mph51%30.21 "HgN/A
1:30 PM59 °FPartly sunny.8 mph48%30.21 "HgN/A
1:00 PM59 °FPartly sunny.8 mph51%30.24 "HgN/A
12:30 PM57 °FPartly sunny.8 mph51%30.24 "HgN/A
12:00 PM57 °FScattered clouds.8 mph48%30.24 "HgN/A
11:30 AM59 °FScattered clouds.3 mph48%30.24 "HgN/A
11:00 AM55 °FPartly sunny.1 mph55%30.24 "HgN/A
10:30 AM55 °FPartly sunny.6 mph63%30.24 "HgN/A
10:00 AM54 °FPartly sunny.8 mph67%30.24 "HgN/A
9:30 AM52 °FPartly sunny.8 mph77%30.24 "HgN/A
9:00 AM48 °FPartly sunny.10 mph82%30.24 "HgN/A
7:00 AM46 °FPassing clouds.13 mph87%30.21 "HgN/A
6:30 AM46 °FPassing clouds.10 mph87%30.24 "HgN/A
6:00 AM46 °FPassing clouds.10 mph87%30.24 "HgN/A
5:30 AM46 °FPassing clouds.8 mph87%30.21 "HgN/A
5:00 AM48 °FPassing clouds.8 mph82%30.21 "HgN/A
4:30 AM48 °FPassing clouds.10 mph82%30.21 "HgN/A
4:00 AM50 °FPassing clouds.8 mph71%30.21 "HgN/A
3:30 AM50 °FPassing clouds.8 mph76%30.21 "HgN/A
3:00 AM52 °FOvercast.8 mph72%30.21 "HgN/A
2:30 AM50 °FOvercast.8 mph76%30.21 "HgN/A
2:00 AM52 °FOvercast.8 mph72%30.21 "HgN/A
1:30 AM52 °FOvercast.13 mph67%30.21 "HgN/A
1:00 AM52 °FOvercast.8 mph72%30.21 "HgN/A
12:30 AM52 °FOvercast.10 mph67%30.21 "HgN/A
12:00 AM52 °FOvercast.6 mph72%30.21 "HgN/A
11:30 PM
Oct 19
52 °FOvercast.6 mph67%30.21 "HgN/A
11:00 PM52 °FOvercast.8 mph67%30.18 "HgN/A
10:30 PM50 °FOvercast.3 mph71%30.18 "HgN/A
10:00 PM50 °FOvercast.8 mph71%30.18 "HgN/A
9:30 PM50 °FOvercast.3 mph71%30.18 "HgN/A
9:00 PM50 °FPassing clouds.8 mph71%30.15 "HgN/A
8:30 PM50 °FOvercast.6 mph71%30.15 "HgN/A
8:00 PM52 °FOvercast.6 mph67%30.12 "HgN/A
7:30 PM52 °FOvercast.6 mph67%30.12 "HgN/A
7:00 PM52 °FPartly sunny.6 mph67%30.09 "HgN/A
6:30 PM52 °FPartly sunny.3 mph67%30.09 "HgN/A
6:00 PM52 °FPartly sunny.6 mph67%30.07 "HgN/A
5:30 PM52 °FPartly sunny.3 mph72%30.07 "HgN/A
5:00 PM54 °FPartly sunny.6 mph67%30.04 "HgN/A
Weather by CustomWeather, © 2014

See weather overviewHow to use our weather pages